Other Public Products
Issued by NWS Grand Forks, ND

Home | Current Version | Previous Version | Graphics & Text | Print | Product List | Glossary On
Versions: 1 2 3 4 5 6 7 8 9 10 11 12 13 14 15 16 17 18 19 20 21 22 23 24 25 26 27 28 29 30 31 32 33 34 35 36 37 38 39 40 41 42 43 44 45 46 47 48 49 50
000
FPUS83 KFGF 261510
OPUFGF
PRAIRIE TO PINES WEATHER ROUNDUP
NATIONAL WEATHER SERVICE EASTERN NORTH DAKOTA/GRAND FORKS ND
900 AM CST MON JAN 26 2015

 **SATELLITE DATA USED TO AUGMENT SKY COVER AT AUTOMATED STATIONS**
 *****  WEATHER ACROSS EASTERN NORTH DAKOTA  *****

CITY           SKY/WX    TMP DP  RH WIND       PRES   REMARKS
GRAND FORKS    MOCLDY    37  30  75 NW20G26   29.71R
GRAND FORKS AF PTCLDY    38  30  73 NW18G26   29.73R
GRAND CITY NWS   N/A     36 N/A N/A NW15        N/A
BUXTON         NOT AVBL
DEVILS LAKE    CLEAR     34  28  80 NW17      29.77R WCI  23
FARGO          CLEAR     37  30  75 W14       29.72R
WAHPETON ARPT  SUNNY     34  30  86 W14       29.75R WCI  24
$$

 *****  WEATHER ACROSS CENTRAL AND WESTERN NORTH DAKOTA  *****

CITY           SKY/WX    TMP DP  RH WIND       PRES   REMARKS
JAMESTOWN      CLEAR     36  30  79 NW16      29.80R
BISMARCK       CLEAR     38  32  79 NW8       29.90R
MINOT          CLEAR     37  29  72 W16       29.87R
MINOT AFB      CLEAR     35  34  98 NW12      29.87R
GARRISON         N/A     37  31  78 NW10      29.89R
WILLISTON      CLEAR     34  29  82 W8        29.96R
DICKINSON      CLEAR     35  31  85 W12       29.94R
HETTINGER      CLEAR     35  30  82 NW12      29.98R
$$

 *****  OTHER OBSERVATIONS NORTHEAST NORTH DAKOTA  *****

CITY           SKY/WX    TMP DP  RH WIND       PRES   REMARKS
WALHALLA         N/A     37  36  93 NW13G22   29.73R
LANGDON        FAIR      32  28  86 NW21      29.73R WCI  20
CAVALIER       MIX PCPN  37  32  81 NW16      29.72R
GRAFTON        NOT AVBL
CANDO          FAIR      36  30  80 NW22G28   29.78R
FORT TOTTEN    NOT AVBL
ROLLA          FAIR      36  32  87 NW30G38   29.77R
RUGBY          FAIR      32  28  86 NW15      29.82R WCI  22
 ***** THE ABOVE OBSERVATIONS ARE NON NWS ARE NOT QUALITY
        CONTROLLED AND MAY MIS-REPORT RAIN FOR SNOW...
$$

 *****  OTHER OBSERVATIONS SOUTHEAST NORTH DAKOTA *****

CITY           SKY/WX    TMP DP  RH WIND       PRES   REMARKS
COOPERSTOWN    NOT AVBL
VALLEY CITY    FAIR      36  36 100 NW17G25   29.77R
OAKES            N/A     34  34 100 NW12      29.80R
GWINNER        SUNNY     37  34  87 NW15      29.79R
SHEYENNE NWR     N/A     36  31  81 NW9       29.95
BUFFALO        NOT AVBL
WYNDMERE         N/A     37  32  81 W12         N/A
 ***** THE ABOVE OBSERVATIONS ARE NON NWS ARE NOT QUALITY
       CONTROLLED AND MAY MIS-REPORT RAIN FOR SNOW...
$$

  *****  WEATHER ACROSS NORTHERN MINNESOTA  *****

CITY           SKY/WX    TMP DP  RH WIND       PRES   REMARKS
FLAG ISLAND    DRIZZLE   30  30 100 NW16      29.58R WCI  19
WARROAD        LGT RAIN  36  30  80 NW10      29.62R
ROSEAU         LGT RAIN  36  30  80 NW12      29.62R
HALLOCK        CLOUDY    37  32  81 NW16      29.69R
THF RVR FALLS  CLOUDY    36  30  80 NW14      29.67R
HALSTAD          N/A     35  28  76 NW15        N/A
FOSSTON        MIX PCPN  32  28  86 NW12G18   29.67R WCI  23
BAUDETTE       CLOUDY    34  30  85 NW18G25   29.57R WCI  23
WASKISH        CLOUDY   N/A N/A N/A SW9       29.60R
CROOKSTON      CLOUDY    36  30  80 NW17      29.70R
$$
  *****  WEATHER ACROSS CENTRAL AND WEST MINNESOTA  *****

CITY           SKY/WX    TMP DP  RH WIND       PRES   REMARKS
BEMIDJI        CLOUDY    33  31  94 W15       29.63R WCI  23
PARK RAPIDS    CLOUDY    35  30  82 NW15      29.64R
WADENA         CLOUDY    28  28 100 W6        29.67R WCI  22
DETROIT LAKES  CLOUDY    34  32  93 NW18      29.69R WCI  23
MOORHEAD       CLEAR     36  34  93 NW12      29.73R
FERGUS FALLS   CLEAR     28  28 100 W8        29.75R WCI  20
ELBOW LAKE     FAIR      31  29  93 NW12      29.72R WCI  22
MORRIS MN      CLEAR     36  32  87 NW17      29.72S
STAPLES        MOCLDY    30  28  93 W8        29.66R WCI  23
WHEATON        CLEAR     36  30  80 W17G25    29.77R
$$
  *****  WEATHER ELSEWHERE ACROSS MINNESOTA  *****

CITY           SKY/WX    TMP DP  RH WIND       PRES   REMARKS
DULUTH         LGT SNOW  22  19  89 SW9       29.61F FOG     WCI  12
INTRNTL FALLS  CLOUDY    26  24  92 CALM      29.57R
ELY            FLURRIES  19  18  93 S7        29.60F WCI  10
CLOQUET        CLOUDY    21  19  93 S3        29.62S FOG
BRAINERD       CLOUDY    30  27  88 W6        29.64S WCI  24
HIBBING        LGT SNOW  23  19  85 S5        29.60R FOG     WCI  17
ALEXANDRIA     CLEAR     33  29  85 NW13      29.70R WCI  24
SAINT CLOUD    MOSUNNY   32  29  88 W3        29.67S
MINNEAPOLIS    CLOUDY    32  28  85 CALM      29.70S
$$

  *****  WEATHER ACROSS SOUTH DAKOTA  *****

CITY           SKY/WX    TMP DP  RH WIND       PRES   REMARKS
SIOUX FALLS    MOSUNNY   37  33  85 NW16      29.83R
BROOKINGS      NOT AVBL
WATERTOWN      CLEAR     35  30  82 NW10      29.80R
HURON          PTCLDY    38  34  85 W13       29.87R
SISSETON         N/A     39  33  79 NW16      29.76R
ABERDEEN       CLEAR     34  30  85 W7        29.86R
MITCHELL       PTCLDY    38  33  82 W14       29.90R
PIERRE         PTCLDY    40  33  76 W12       29.94R
MOBRIDGE       CLEAR     38  34  85 NW10      29.89R
RAPID CITY     CLEAR     47  28  47 SW3       30.04R
$$

  *****  SOME WEATHER IN NEARBY STATES *****

CITY           SKY/WX    TMP DP  RH WIND       PRES   REMARKS
GLASGOW MT     CLEAR     29  27  92 S5        29.97R WCI  24
GREAT FALLS MT MOCLDY    55  28  35 SW23G31   30.02F
CHEYENNE WY    CLEAR     51  21  30 W16G24    30.24R
SCOTTSBLUFF NE CLEAR     38  30  73 N5        30.17R
OMAHA NE       MOSUNNY   32  29  88 S3        29.88S
DES MOINES IA  CLOUDY    34  28  79 SW13      29.82F WCI  25
DAVENPORT IA   LGT SNOW  20  16  84 S10       29.93S FOG     WCI   9
CHICAGO IL     PTSUNNY   20  15  81 W3        29.95F
EAU CLAIRE WI  CLOUDY    22  18  85 S8        29.73F WCI  12
LA CROSSE WI   CLOUDY    23  19  85 S14       29.81F WCI  11
$$

  *****  SOME NATIONAL WEATHER *****

CITY           SKY/WX    TMP DP  RH WIND       PRES   REMARKS
LA GUARDIA NY  LGT SNOW  24  19  81 NE23      30.01S VSB 1   WCI   9
RALEIGH NC     PTSUNNY   44  41  89 NE5       29.64F
ATLANTA GA     DRIZZLE   43  39  87 W15G22    29.83R
NEW ORLEANS LA MOSUNNY   51  35  54 NW13      30.15R
OKLAHOMA CITY  SUNNY     39  30  70 S6        30.13S
ALBUQUERQUE NM PTCLDY    34  24  67 N5        30.38R
SALT LAKE CITY CLEAR     32  28  85 SE5       30.39S
LOS ANGELES CA CLOUDY    67  34  29 E10       29.98S
BOISE ID       CLEAR     29  27  92 E7        30.35R WCI  22
SEATTLE WA     PTCLDY    44  42  93 S3        29.95S
$$

*** WEATHER ACROSS MANITOBA...SASKATCHEWAN AND ONTARIO ***
                ***ONTARIO***

CITY           SKY/WX    TMP DP  RH WIND       PRES   REMARKS
GERALDTON      LGT SNOW   5   1  85 E7        29.78  WCI  -7
THUNDER BAY    LGT SNOW  21  19  93 NE6       29.74S VSB 3/4 WCI  14
SIOUX LOOKOUT  FLURRIES  18  16  93 E3        29.61R
TORONTO        PTSUNNY   10   0  61 NE14      30.02R WCI  -5
BIG TROUT LK   CLEAR     -4  -6  92 E5        29.79R WCI -15
PICKLE LAKE    LGT SNOW  12   7  79 SE7       29.66R WCI   2
DRYDEN         CLOUDY    19  18  93 E5        29.58R WCI  13
KENORA         FLURRIES  23  21  93 NW8       29.57R WCI  14
$$
                *** MANITOBA***

CITY           SKY/WX    TMP DP  RH WIND       PRES   REMARKS
BRANDON        MOCLDY    28  25  86 NW10      29.80R WCI  19
DAUPHIN        MOCLDY    19  19 100 NE5       29.86R WCI  13
ISLAND LAKE    PTCLDY     7   3  85 N3        29.75R
PILOT MOUND      N/A     34  30  86 NW22G28     N/A  WCI  22
THE PAS        CLOUDY    14   9  79 N6        29.83S WCI   5
THOMPSON       FLURRIES   5   1  85 W3        29.83R
WINNIPEG       CLOUDY    30  25  80 N24G31    29.73R WCI  16
LYNN LAKE      CLOUDY     5   3  92 S3        29.75S
CHURCHILL      PTCLDY   -18 -24  76 S8        29.88F WCI -37
GILLAM         CLOUDY    -4  -8  84 E3        29.83S
$$
                ***SASKATCHEWAN***

CITY           SKY/WX    TMP DP  RH WIND       PRES   REMARKS
ESTEVAN        CLOUDY    34  30  86 W13       29.90R WCI  25
KINDERSLEY     MOCLDY    25  21  86 SE8       29.87S WCI  16
LLOYDMINSTER   PTCLDY    32  27  80 W9        29.83S WCI  24
PRINCE ALBERT  CLOUDY    28  25  86 W8        29.84R WCI  20
REGINA         MOCLDY    34  30  86 NW10      29.90R


USA.gov is the U.S. government's official web portal to all federal, state and local government web resources and services.